When you browse on this site, cookies collect data to enhance your experience and personalize the content and advertising you see.
Visit our Privacy Policy to learn more. By continuing to use the site, you agree to this use of cookies and data.
  • In Netherlands
  • List of Countries
  • For 7 days
  • Water Temperature
  • Weather Map
  • Weather Widgets
  • user-avatar
    Login

    Hourly Weather Ryabinino

    Today, 26 May, Tuesday

    Time Temperature Precipitation Wind Pressure Humidity
    00:00 +8°C° 0 mm 0 mps 744 mmHg 80%
    01:00 +7°C° 0 mm 0 mps 744 mmHg 83%
    02:00 +8°C° 0 mm 1 mps 745 mmHg 84%
    03:00 +8°C° 0 mm 1 mps 745 mmHg 82%
    04:00 +9°C° 0 mm 1 mps 745 mmHg 79%
    05:00 +10°C° 0 mm 1 mps 745 mmHg 77%
    06:00 +12°C° 0 mm 1 mps 746 mmHg 69%
    07:00 +14°C° 0 mm 1 mps 746 mmHg 61%
    08:00 +18°C° 0 mm 1 mps 746 mmHg 53%
    09:00 +19°C° 0 mm 1 mps 746 mmHg 48%
    10:00 +20°C° 0 mm 1 mps 746 mmHg 44%
    11:00 +21°C° 0 mm 1 mps 746 mmHg 39%
    12:00 +21°C° 0 mm 1 mps 746 mmHg 38%
    13:00 +20°C° 0 mm 1 mps 746 mmHg 38%
    14:00 +19°C° 0 mm 1 mps 746 mmHg 43%
    15:00 +19°C° 0 mm 1 mps 745 mmHg 46%
    16:00 +19°C° 0 mm 1 mps 745 mmHg 49%
    17:00 +19°C° 0 mm 1 mps 745 mmHg 53%
    18:00 +16°C° 0 mm 1 mps 745 mmHg 59%
    19:00 +14°C° 0 mm 1 mps 745 mmHg 65%
    20:00 +12°C° 0 mm 1 mps 744 mmHg 71%
    21:00 +11°C° 0 mm 1 mps 744 mmHg 73%
    22:00 +10°C° 0 mm 1 mps 744 mmHg 74%
    23:00 +10°C° 0 mm 1 mps 744 mmHg 76%

    Tomorrow, 27 May, Wednesday

    Time Temperature Precipitation Wind Pressure Humidity
    00:00 +9°C° 0 mm 1 mps 744 mmHg 77%
    01:00 +9°C° 0 mm 1 mps 744 mmHg 78%
    02:00 +9°C° 0 mm 1 mps 743 mmHg 78%
    03:00 +9°C° 0 mm 1 mps 743 mmHg 78%
    04:00 +10°C° 0 mm 1 mps 743 mmHg 78%
    05:00 +10°C° 0 mm 1 mps 743 mmHg 77%
    06:00 +12°C° 0 mm 1 mps 743 mmHg 71%
    07:00 +14°C° 0 mm 1 mps 743 mmHg 65%
    08:00 +15°C° 0 mm 1 mps 743 mmHg 59%
    09:00 +18°C° 0.1 mm 1 mps 743 mmHg 54%
    10:00 +20°C° 0.1 mm 1 mps 743 mmHg 49%
    11:00 +19°C° 0.1 mm 0 mps 743 mmHg 44%
    12:00 +19°C° 0 mm 0 mps 742 mmHg 45%
    13:00 +18°C° 0 mm 0 mps 742 mmHg 46%
    14:00 +17°C° 0 mm 0 mps 742 mmHg 47%
    15:00 +19°C° 0 mm 1 mps 742 mmHg 49%
    16:00 +19°C° 0 mm 1 mps 741 mmHg 51%
    17:00 +19°C° 0 mm 1 mps 741 mmHg 53%
    18:00 +16°C° 0.1 mm 1 mps 741 mmHg 62%
    19:00 +14°C° 0.1 mm 1 mps 741 mmHg 71%
    20:00 +12°C° 0.1 mm 1 mps 741 mmHg 80%
    21:00 +11°C° 0 mm 1 mps 741 mmHg 83%
    22:00 +10°C° 0 mm 1 mps 740 mmHg 86%
    23:00 +9°C° 0 mm 0 mps 740 mmHg 89%

    Day after tomorrow, 28 May, Thursday

    Time Temperature Precipitation Wind Pressure Humidity
    00:00 +8°C° 0 mm 0 mps 740 mmHg 89%
    01:00 +8°C° 0 mm 0 mps 740 mmHg 89%
    02:00 +8°C° 0 mm 0 mps 741 mmHg 90%
    03:00 +8°C° 0 mm 0 mps 740 mmHg 88%
    04:00 +10°C° 0 mm 1 mps 740 mmHg 87%
    05:00 +10°C° 0 mm 1 mps 740 mmHg 86%
    06:00 +13°C° 0 mm 1 mps 740 mmHg 78%
    07:00 +15°C° 0 mm 1 mps 740 mmHg 70%
    08:00 +16°C° 0 mm 0 mps 741 mmHg 62%
    09:00 +17°C° 0.2 mm 0 mps 740 mmHg 59%
    10:00 +18°C° 0.2 mm 0 mps 740 mmHg 55%
    11:00 +19°C° 0.2 mm 0 mps 740 mmHg 52%
    12:00 +19°C° 0 mm 0 mps 740 mmHg 50%
    13:00 +19°C° 0 mm 0 mps 740 mmHg 48%
    14:00 +20°C° 0 mm 0 mps 739 mmHg 45%
    15:00 +21°C° 0 mm 1 mps 739 mmHg 49%
    16:00 +20°C° 0 mm 1 mps 739 mmHg 54%
    17:00 +19°C° 0 mm 1 mps 739 mmHg 58%
    18:00 +18°C° 0 mm 1 mps 739 mmHg 64%
    19:00 +15°C° 0 mm 1 mps 739 mmHg 71%
    20:00 +13°C° 0 mm 1 mps 739 mmHg 78%
    21:00 +12°C° 0 mm 1 mps 739 mmHg 80%
    22:00 +11°C° 0 mm 1 mps 739 mmHg 83%
    23:00 +11°C° 0 mm 1 mps 739 mmHg 85%

    29 May, Friday

    Time Temperature Precipitation Wind Pressure Humidity
    00:00 +10°C° 0 mm 1 mps 739 mmHg 86%
    01:00 +10°C° 0 mm 1 mps 738 mmHg 87%
    02:00 +10°C° 0 mm 1 mps 738 mmHg 88%
    03:00 +10°C° 0 mm 1 mps 738 mmHg 87%
    04:00 +10°C° 0 mm 2 mps 738 mmHg 86%
    05:00 +10°C° 0 mm 2 mps 738 mmHg 85%
    06:00 +13°C° 0 mm 2 mps 738 mmHg 80%
    07:00 +15°C° 0 mm 2 mps 738 mmHg 76%
    08:00 +16°C° 0 mm 2 mps 737 mmHg 72%
    09:00 +16°C° 0.2 mm 2 mps 737 mmHg 75%
    10:00 +16°C° 0.2 mm 3 mps 737 mmHg 78%
    11:00 +14°C° 0.2 mm 3 mps 736 mmHg 82%
    12:00 +14°C° 0.1 mm 3 mps 736 mmHg 81%
    13:00 +14°C° 0.1 mm 3 mps 736 mmHg 81%
    14:00 +14°C° 0.1 mm 3 mps 736 mmHg 80%
    15:00 +14°C° 0 mm 3 mps 736 mmHg 81%
    16:00 +14°C° 0 mm 3 mps 735 mmHg 81%
    17:00 +14°C° 0 mm 3 mps 735 mmHg 81%
    18:00 +13°C° 0 mm 3 mps 735 mmHg 84%
    19:00 +13°C° 0 mm 3 mps 735 mmHg 87%
    20:00 +12°C° 0 mm 3 mps 735 mmHg 90%
    21:00 +12°C° 0 mm 3 mps 735 mmHg 92%
    22:00 +11°C° 0 mm 4 mps 735 mmHg 94%
    23:00 +11°C° 0 mm 4 mps 735 mmHg 95%

    30 May, Saturday

    Time Temperature Precipitation Wind Pressure Humidity
    00:00 +11°C° 0 mm 4 mps 735 mmHg 94%
    01:00 +12°C° 0 mm 4 mps 735 mmHg 92%
    02:00 +12°C° 0 mm 5 mps 734 mmHg 91%
    03:00 +12°C° 0 mm 5 mps 735 mmHg 90%
    04:00 +12°C° 0 mm 5 mps 735 mmHg 90%
    05:00 +12°C° 0 mm 5 mps 735 mmHg 90%
    06:00 +13°C° 0 mm 5 mps 735 mmHg 88%
    07:00 +13°C° 0 mm 5 mps 735 mmHg 86%
    08:00 +14°C° 0 mm 5 mps 735 mmHg 85%
    09:00 +14°C° 0.3 mm 5 mps 735 mmHg 85%
    10:00 +14°C° 0.3 mm 5 mps 735 mmHg 86%
    11:00 +15°C° 0.3 mm 5 mps 736 mmHg 86%
    12:00 +15°C° 0.5 mm 5 mps 736 mmHg 88%
    13:00 +14°C° 0.5 mm 4 mps 736 mmHg 89%
    14:00 +14°C° 0.5 mm 4 mps 736 mmHg 90%
    15:00 +15°C° 0 mm 4 mps 736 mmHg 87%
    16:00 +15°C° 0 mm 5 mps 736 mmHg 84%
    17:00 +15°C° 0 mm 5 mps 736 mmHg 81%
    18:00 +15°C° 0 mm 5 mps 736 mmHg 81%
    19:00 +15°C° 0 mm 5 mps 736 mmHg 80%
    20:00 +15°C° 0 mm 5 mps 736 mmHg 80%
    21:00 +14°C° 0 mm 5 mps 736 mmHg 80%
    22:00 +14°C° 0 mm 6 mps 737 mmHg 80%
    23:00 +13°C° 0 mm 6 mps 737 mmHg 80%

    31 May, Sunday

    Time Temperature Precipitation Wind Pressure Humidity
    00:00 +13°C° 0 mm 6 mps 737 mmHg 79%
    01:00 +11°C° 0 mm 6 mps 737 mmHg 79%
    02:00 +10°C° 0 mm 6 mps 737 mmHg 78%
    03:00 +10°C° 0 mm 6 mps 737 mmHg 75%
    04:00 +10°C° 0 mm 6 mps 737 mmHg 71%
    05:00 +10°C° 0 mm 6 mps 737 mmHg 68%
    06:00 +11°C° 0 mm 7 mps 738 mmHg 62%
    07:00 +12°C° 0 mm 7 mps 738 mmHg 57%
    08:00 +14°C° 0 mm 7 mps 738 mmHg 52%
    09:00 +15°C° 0 mm 7 mps 738 mmHg 49%
    10:00 +16°C° 0 mm 7 mps 738 mmHg 46%
    11:00 +17°C° 0 mm 7 mps 738 mmHg 43%
    12:00 +17°C° 0 mm 7 mps 738 mmHg 43%
    13:00 +19°C° 0 mm 6 mps 738 mmHg 42%
    14:00 +19°C° 0 mm 6 mps 738 mmHg 42%
    15:00 +19°C° 0 mm 6 mps 738 mmHg 44%
    16:00 +17°C° 0 mm 5 mps 739 mmHg 46%
    17:00 +17°C° 0 mm 5 mps 739 mmHg 48%
    18:00 +15°C° 0 mm 5 mps 739 mmHg 54%
    19:00 +14°C° 0 mm 4 mps 739 mmHg 60%
    20:00 +12°C° 0 mm 3 mps 740 mmHg 66%
    21:00 +11°C° 0 mm 3 mps 740 mmHg 67%
    22:00 +10°C° 0 mm 3 mps 741 mmHg 69%
    23:00 +9°C° 0 mm 3 mps 741 mmHg 70%
    Show more